Regional Weather Roundup
Issued by NWS Charleston, WV

Home | Current Version | Previous Version | Graphics & Text | Print | Product List | Glossary On
Versions: 1 2 3 4 5 6 7 8 9 10 11 12 13 14 15 16 17 18 19 20 21 22 23 24 25 26 27 28 29 30 31 32 33 34 35 36 37 38 39 40 41 42 43 44 45 46 47 48 49 50
000
ASUS41 KRLX 101910
RWRRLX
CRWRWRRLX ALL
West Virginia Regional Weather Roundup
National Weather Service Charleston WV
Issued by National Weather Service Pittsburgh PA
200 PM EST SAT DEC 10 2016

Note: "fair" indicates few or no clouds below 12,000 feet with no
significant weather and/or obstructions to visibility.

WVZ003-102000-
Northern Panhandle of West Virginia

CITY           SKY/WX    TMP DP  RH WIND       PRES   REMARKS
WHEELING       CLOUDY    25  14  63 W7        30.44S WCI  17
$$

WVZ009-102000-
Northwest West Virginia

CITY           SKY/WX    TMP DP  RH WIND       PRES   REMARKS
PARKERSBURG    CLOUDY    28  13  53 VRB6      30.52F WCI  22
$$

WVZ006-102000-
Western West Virginia

CITY           SKY/WX    TMP DP  RH WIND       PRES   REMARKS
HUNTINGTON     SUNNY     32  14  47 NW5       30.51F WCI  27
$$

WVZ015-102000-
West Central West Virginia

CITY           SKY/WX    TMP DP  RH WIND       PRES   REMARKS
CHARLESTON     MOSUNNY   30  12  47 W9        30.49F WCI  22
$$

WVZ031-102000-
North Central West Virginia

CITY           SKY/WX    TMP DP  RH WIND       PRES   REMARKS
CLARKSBURG     CLOUDY    25  14  63 W9        30.47S WCI  15
MORGANTOWN     CLOUDY    26  11  52 SW7       30.45F WCI  18
$$

WVZ035-042-102000-
South Central West Virginia

CITY           SKY/WX    TMP DP  RH WIND       PRES   REMARKS
BECKLEY        SUNNY     28  11  48 W10       30.38F WCI  19
BLUEFIELD      SUNNY     26   9  48 W8        30.36F WCI  18
$$

WVZ045-102000-
Greenbrier Valley of West Virginia

CITY           SKY/WX    TMP DP  RH WIND       PRES   REMARKS
LEWISBURG      SUNNY     28  11  48 NW8       30.37F WCI  20
$$

WVZ047-102000-
Northern Mountains of West Virginia

CITY           SKY/WX    TMP DP  RH WIND       PRES   REMARKS
ELKINS         CLOUDY    23  11  60 W7        30.42S WCI  15
$$

WVZ052-102000-
Eastern Panhandle of West Virginia

CITY           SKY/WX    TMP DP  RH WIND       PRES   REMARKS
MARTINSBURG    MOSUNNY   33  11  39 NW14      30.44F WCI  23
PETERSBURG     SUNNY     32  14  46 W13       30.45S WCI  22
$$



USA.gov is the U.S. government's official web portal to all federal, state and local government web resources and services.